Tracking 23764 objects as of 17-Oct-2021
HD Live streaming from Space Station
objects crossing your sky now

DELTA 1 DEB

Track DELTA 1 DEB now!
10-day predictions


NORAD ID: 8678
Int'l Code: 1975-004F
Perigee: 740.2 km
Apogee: 998.7 km
Inclination: 97.6 °
Period: 102.2 minutes
Semi major axis: 7240 km
RCS: 0.0564 m2 (small)
Launch date: January 22, 1975
Source: United States (US)
Launch site: AIR FORCE WESTERN TEST RANGE (AFWTR)

Note: This is SATELLITE DEBRIS
aabbcc
Your satellite tracking list
Your tracking list is empty




NASA's NSSDC Master Catalog

Two Line Element Set (TLE):
1 08678U 75004F   21289.55293663  .00000173  00000-0  10210-3 0  9994
2 08678  97.6425 150.0296 0178531  75.3936 286.6960 14.09134372398422
Source of the keplerian elements: AFSPC